Regional Weather Roundup
Issued by NWS

Home | Current Version | Previous Version | Text Only | Print | Product List | Glossary On
Versions: 1 2 3 4 5 6 7 8 9 10 11 12 13 14 15 16 17 18 19 20 21 22 23 24 25 26 27 28 29 30 31 32 33 34 35 36 37 38 39 40 41 42 43 44 45 46 47 48 49 50
695
ASUS43 KTOP 032008
RWRKS

WEATHER ROUNDUP FOR KANSAS
NATIONAL WEATHER SERVICE GOODLAND KS
300 PM CDT TUE MAY 03 2016

NOTE:  "FAIR" INDICATES FEW OR NO CLOUDS BELOW 12,000 FEET WITH NO
SIGNIFICANT WEATHER AND/OR OBSTRUCTIONS TO VISIBILITY.

KSZ001>006-013>018-027>032-041>047-032100-
NORTHWEST KANSAS

CITY           SKY/WX    TMP DP  RH WIND       PRES   REMARKS
GOODLAND       MOSUNNY   65  40  39 N14G23    30.11S
HAYS           PTSUNNY   66  43  42 NW13      30.05F
HILL CITY      PTSUNNY   65  42  43 N6        30.08S
RUSSELL        MOSUNNY   69  43  38 W14       30.02F
$$

KSZ061>065-074>080-084>089-032100-
SOUTHWEST KANSAS

CITY           SKY/WX    TMP DP  RH WIND       PRES   REMARKS
DODGE CITY     MOSUNNY   65  39  38 NW10      30.06F
ELKHART          N/A     65  33  30 NW15        N/A
GARDEN CITY    PTSUNNY   64  39  39 N15G21    30.08S
GREAT BEND     MOSUNNY   66  43  42 NW12      30.03S
LIBERAL        MOSUNNY   66  41  39 N13G18    30.08F
PRATT          MOSUNNY   65  43  44 SW10G16   30.04S
$$

KSZ066>073-081>083-090>101-032100-
SOUTHEAST KANSAS

CITY           SKY/WX    TMP DP  RH WIND       PRES   REMARKS
CHANUTE        PTSUNNY   66  42  41 S7        30.05F
COFFEYVILLE    MOSUNNY   68  43  40 CALM      30.05F
HUTCHINSON     PTSUNNY   72  40  31 SW8G16    30.02F
MEDICINE LODGE   N/A     69  38  32 CALM      30.02F
NEWTON         PTSUNNY   68  43  40 SW12      30.05S
PARSONS        PTSUNNY   67  45  45 S6        30.06F
WICHITA INTL   MOSUNNY   70  43  37 SW9       30.03F
WICHITA JABRA  PTSUNNY   68  44  42 S6        30.03F
WICHITA MCCONL MOSUNNY   70  45  41 SW10G18   30.03F
WINFIELD       SUNNY     70  45  40 SW6       30.29R
$$

KSZ007>012-019>026-033>040-048>060-102>105-032100-
NORTHEAST KANSAS

CITY           SKY/WX    TMP DP  RH WIND       PRES   REMARKS
CONCORDIA      MOSUNNY   70  42  36 SE8       30.01F
EMPORIA        PTSUNNY   70  43  37 SW12      30.02F
LAWRENCE       MOSUNNY   68  43  40 NW6       30.02F
MANHATTAN      MOSUNNY   72  42  34 SW6       30.01F
MARYSVILLE     SUNNY     68  43  40 NW7       30.02F
OLATHE IND     MOSUNNY   67  41  38 W8        30.03F
OLATHE EXE     MOSUNNY   66  39  37 VRB6G18   30.03F
SALINA         PTSUNNY   73  43  33 W7        30.01F
TOPEKA BILLARD SUNNY     69  43  38 W7        30.02F
TOPEKA FORBES  MOSUNNY   69  43  38 SW3       30.02F
$$




USA.gov is the U.S. government's official web portal to all federal, state and local government web resources and services.